15 daagse weersverwachting Luton (GB)

  • Overzicht
  • Per uur
  • 15 dagen
  • Extra
  • Vergelijk
  • Kaarten
  • Dagkaart
  • Meer »
  • Info
  • Statistieken
  • Directe link
    Temp 6h Neerslag Wind  
 04:43     21:23    Daglengte: 16:40 Morgen
01:00
12°
 
5
07:00
13°
 
6
13:00
18°
 
6
19:00
18°
 
5
 04:43     21:24    Daglengte: 16:41 Dinsdag 18 Jun
01:00
12°
 
3
07:00
12°
 
2
13:00
19°
 
2
19:00
19°
 
2
 04:43     21:24    Daglengte: 16:41 Woensdag 19 Jun
01:00
14°
9.8 mm
2
07:00
13°
43.7 mm
3
13:00
16°
65.7 mm
4
19:00
16°
58.4 mm
4
Locatie info
Region: England
Latitude: 51.8816°N
Longitude: -0.4161°E
117 masl
Postcode: LU1 2
Temp/Neerslag /Baro Onweer/Dauwpunt
    Temp Baro 1h Neerslag Dauwpunt Wind UV Bewolking  
 04:43     21:23    Daglengte: 16:40 Morgen
00:00
12°
1017.6 hPa
14%
10.4°
5
Windvlaag: 5.3 km/h
5%
01:00
12°
1017.5 hPa
14%
10.6°
5
Windvlaag: 5.2 km/h
2%
02:00
12°
1017.4 hPa
14%
10.6°
5
Windvlaag: 5.1 km/h
2%
03:00
11°
1017.2 hPa
14%
10.5°
5
Windvlaag: 4.9 km/h
7%
04:00
11°
1017.1 hPa
14%
10.4°
5
Windvlaag: 4.9 km/h
6%
05:00
11°
1017.3 hPa
14%
10.4°
5
Windvlaag: 4.8 km/h
5%
06:00
12°
1017.5 hPa
14%
10.5°
5
Windvlaag: 3.5 km/h
7%
07:00
13°
1017.5 hPa
14%
11.0°
6
Windvlaag: 4.8 km/h
62%
08:00
14°
1017.6 hPa
14%
11.1°
6
Windvlaag: 4.8 km/h
45%
09:00
15°
1017.5 hPa
14%
10.9°
6
Windvlaag: 4.8 km/h
64%
10:00
16°
1017.3 hPa
14%
10.7°
6
Windvlaag: 4.8 km/h
61%
11:00
17°
1017.1 hPa
14%
10.7°
6
Windvlaag: 4.6 km/h
73%
12:00
18°
1017.1 hPa
14%
10.8°
6
Windvlaag: 4.2 km/h
68%
13:00
18°
1016.7 hPa
14%
10.7°
6
Windvlaag: 4.1 km/h
65%
14:00
18°
1016.6 hPa
14%
11.3°
6
Windvlaag: 4.1 km/h
51%
15:00
19°
1016.3 hPa
14%
11.2°
5
Windvlaag: 4.2 km/h
55%
16:00
19°
1016.1 hPa
14%
11.4°
5
Windvlaag: 4.2 km/h
57%
17:00
19°
1015.8 hPa
14%
11.2°
5
Windvlaag: 4.1 km/h
55%
18:00
18°
1015.6 hPa
14%
11.3°
5
Windvlaag: 3.6 km/h
41%
19:00
18°
1015.6 hPa
14%
11.0°
5
Windvlaag: 3.6 km/h
49%
20:00
17°
1015.6 hPa
14%
11.0°
4
Windvlaag: 3.6 km/h
41%
21:00
15°
1015.8 hPa
14%
11.0°
3
Windvlaag: 3.1 km/h
10%
22:00
14°
1016.1 hPa
14%
10.9°
4
Windvlaag: 3.1 km/h
17%
23:00
14°
1016.3 hPa
14%
10.8°
3
Windvlaag: 2.6 km/h
10%
 04:43     21:24    Daglengte: 16:41 Dinsdag 18 Jun
00:00
13°
1016.3 hPa
14%
10.6°
3
Windvlaag: 2.7 km/h
31%
01:00
12°
1016.2 hPa
14%
10.5°
3
Windvlaag: 2.5 km/h
83%
02:00
12°
1016.1 hPa
14%
10.5°
3
Windvlaag: 2.4 km/h
63%
03:00
12°
1015.8 hPa
14%
10.5°
2
Windvlaag: 2.4 km/h
82%
04:00
11°
1015.6 hPa
14%
10.3°
2
Windvlaag: 1.8 km/h
77%
05:00
11°
1015.5 hPa
14%
10.2°
2
Windvlaag: 1.6 km/h
78%
06:00
11°
1015.4 hPa
14%
10.3°
2
Windvlaag: 1.1 km/h
81%
07:00
12°
1015.4 hPa
14%
10.7°
2
Windvlaag: 0.5 km/h
86%
08:00
13°
1015.4 hPa
14%
11.2°
2
Windvlaag: 1 km/h
83%
09:00
15°
1015.3 hPa
14%
11.1°
2
Windvlaag: 1.3 km/h
73%
10:00
16°
1015.2 hPa
14%
11.0°
3
Windvlaag: 1.4 km/h
82%
11:00
17°
1014.9 hPa
14%
11.1°
2
Windvlaag: 1.2 km/h
75%
12:00
17°
1014.6 hPa
14%
11.5°
2
Windvlaag: 1.5 km/h
70%
13:00
19°
1014.2 hPa
14%
12.1°
2
Windvlaag: 1.5 km/h
72%
14:00
19°
1013.7 hPa
14%
13.1°
2
Windvlaag: 1.6 km/h
80%
15:00
19°
1013.2 hPa
14%
13.4°
2
Windvlaag: 1.7 km/h
87%
16:00
19°
1012.9 hPa
14%
14.3°
2
Windvlaag: 2 km/h
86%
17:00
19°
1012.4 hPa
14%
15.2°
2
Windvlaag: 2.2 km/h
78%
18:00
19°
1011.8 hPa
20%
15.8°
2
Windvlaag: 2.1 km/h
69%
19:00
19°
1011.6 hPa
58%
15.7°
2
Windvlaag: 1.8 km/h
84%
20:00
18°
1011.4 hPa
21%
15.7°
2
Windvlaag: 1.3 km/h
90%
21:00
17°
1011.1 hPa
18%
15.6°
2
Windvlaag: 1.1 km/h
89%
22:00
16°
1011.1 hPa 2.6 mm
27%
15.1°
2
Windvlaag: 1.1 km/h
98%
23:00
15°
1010.7 hPa
32%
14.7°
2
Windvlaag: 1.1 km/h
99%
 04:43     21:24    Daglengte: 16:41 Woensdag 19 Jun
00:00
15°
1010.0 hPa
42%
14.3°
2
Windvlaag: 0.9 km/h
99%
01:00
14°
1009.5 hPa 7.2 mm
100%
13.5°
2
Windvlaag: 0.6 km/h
100%
02:00
14°
1008.9 hPa 5.5 mm
100%
13.3°
2
Windvlaag: 0.4 km/h
99%
03:00
14°
1007.8 hPa 7.9 mm
100%
13.4°
2
Windvlaag: 0.3 km/h
95%
04:00
13°
1007.3 hPa 7.4 mm
100%
13.0°
3
Windvlaag: -1 km/h
89%
05:00
13°
1007.0 hPa 7.8 mm
100%
13.2°
3
Windvlaag: -1.9 km/h
85%
06:00
13°
1006.4 hPa 8.3 mm
100%
12.9°
3
Windvlaag: -2 km/h
98% warningclass
07:00
13°
1006.0 hPa 6.8 mm
100%
12.6°
3
Windvlaag: -2.3 km/h
99%
08:00
14°
1005.3 hPa 7.4 mm
100%
13.1°
3
Windvlaag: 1.2 km/h
99%
09:00
15°
1004.9 hPa 11.6 mm
95%
14.0°
4
Windvlaag: 1.1 km/h
100%
10:00
15°
1004.9 hPa 11.4 mm
23%
14.3°
3
Windvlaag: 0.7 km/h
99%
11:00
16°
1005.2 hPa 11.5 mm
24%
14.5°
3
Windvlaag: 0.7 km/h
100%
12:00
16°
1005.5 hPa 11.9 mm
31%
14.6°
4
Windvlaag: 1.1 km/h
95%
13:00
16°
1005.8 hPa 11.8 mm
27%
14.3°
4
Windvlaag: 2.2 km/h
88%
14:00
16°
1006.2 hPa 11.3 mm
35%
13.8°
4
Windvlaag: 2.2 km/h
81%
15:00
16°
1006.6 hPa
88%
13.8°
4
Windvlaag: 1.7 km/h
77%
16:00
17°
1006.7 hPa 11.2 mm
48%
14.0°
3
Windvlaag: 1.4 km/h
59%
17:00
17°
1007.0 hPa 12.0 mm
24%
14.3°
4
Windvlaag: 1.3 km/h
73%
18:00
16°
1007.2 hPa 12.6 mm
21%
14.4°
4
Windvlaag: 1.2 km/h
75%
19:00
16°
1007.5 hPa 11.4 mm
21%
13.7°
4
Windvlaag: 1.2 km/h
78%
20:00
15°
1008.0 hPa
21%
13.3°
3
Windvlaag: 7.1 km/h
78%
21:00
15°
1008.5 hPa
22%
12.9°
3
Windvlaag: 4.8 km/h
77%
22:00
14°
1008.9 hPa
21%
12.9°
3
Windvlaag: 5.4 km/h
77%
23:00
14°
1009.3 hPa
23%
12.7°
3
Windvlaag: 4.9 km/h
71%
Temp/Neerslag /Baro Onweer/Dauwpunt
    Temp Baro Neerslag Dauwpunt Wind Bewolking  
 04:43     21:23    Daglengte: 16:40 Morgen
01:00
12°
1017.5 hPa   10.6°
5
2%
04:00
11°
1017.1 hPa   10.4°
5
6%
07:00
13°
1017.5 hPa   11.0°
6
62%
10:00
16°
1017.3 hPa   10.7°
6
61%
13:00
18°
1016.7 hPa   10.7°
6
65%
16:00
19°
1016.1 hPa   11.4°
5
57%
19:00
18°
1015.6 hPa   11.0°
5
49%
22:00
14°
1016.1 hPa   10.9°
4
17%
 04:43     21:24    Daglengte: 16:41 Dinsdag 18 Jun
01:00
12°
1016.2 hPa   10.5°
3
83%
04:00
11°
1015.6 hPa   10.3°
2
77%
07:00
12°
1015.4 hPa   10.7°
2
86%
10:00
16°
1015.2 hPa   11.0°
3
82%
13:00
19°
1014.2 hPa   12.1°
2
72%
16:00
19°
1012.9 hPa   14.3°
2
86%
19:00
19°
1011.6 hPa   15.7°
2
84%
22:00
16°
1011.1 hPa 2.6 mm 15.1°
2
98%
 04:43     21:24    Daglengte: 16:41 Woensdag 19 Jun
01:00
14°
1009.5 hPa 7.2 mm 13.5°
2
100%
04:00
13°
1007.3 hPa 20.8 mm 13.0°
3
89%
07:00
13°
1006.0 hPa 22.9 mm 12.6°
3
99%
10:00
15°
1004.9 hPa 30.4 mm 14.3°
3
99%
13:00
16°
1005.8 hPa 35.2 mm 14.3°
4
88%
16:00
17°
1006.7 hPa 22.5 mm 14.0°
3
59%
19:00
16°
1007.5 hPa 35.9 mm 13.7°
4
78%
22:00
14°
1008.9 hPa   12.9°
3
77%
 04:44     21:24    Daglengte: 16:40 Donderdag 20 Jun
01:00
13°
1009.9 hPa   11.8°
4
67%
04:00
11°
1011.3 hPa 16.7 mm 9.9°
4
21%
07:00
11°
1011.8 hPa 16.7 mm 9.2°
4
6%
10:00
14°
1012.3 hPa 16.8 mm 9.5°
5
28%
13:00
17°
1012.7 hPa 17.4 mm 8.9°
6
50%
16:00
16°
1013.1 hPa 17.9 mm 9.2°
5
65%
19:00
15°
1013.4 hPa 18.3 mm 9.4°
5
80%
22:00
13°
1014.7 hPa 18.3 mm 9.2°
4
47%
 04:44     21:24    Daglengte: 16:40 Vrijdag 21 Jun
01:00
10°
1015.9 hPa 18.3 mm 8.7°
3
15%
04:00
10°
1016.7 hPa 18.3 mm 8.5°
3
10%
07:00
10°
1017.6 hPa 18.3 mm 8.4°
3
4%
10:00
13°
1018.1 hPa 18.4 mm 8.3°
4
38%
13:00
16°
1018.5 hPa 19.2 mm 7.4°
4
72%
16:00
16°
1018.7 hPa 19.7 mm 7.5°
3
51%
19:00
16°
1018.9 hPa 20.0 mm 7.7°
3
31%
22:00
14°
1019.8 hPa 20.1 mm 7.4°
2
38%
 04:44     21:25    Daglengte: 16:41 Zaterdag 22 Jun
01:00
13°
1020.5 hPa 20.1 mm 6.9°
1
44%
04:00
12°
1020.7 hPa 20.1 mm 7.8°
2
50%
07:00
11°
1021.0 hPa 20.1 mm 8.7°
2
55%
10:00
14°
1020.8 hPa 20.2 mm 9.0°
2
67%
13:00
17°
1020.6 hPa 20.9 mm 8.3°
2
80%
16:00
17°
1020.0 hPa 22.4 mm 9.8°
3
82%
19:00
17°
1019.4 hPa 23.7 mm 10.9°
3
85%
22:00
14°
1019.8 hPa 24.0 mm 10.3°
3
49%
 04:44     21:25    Daglengte: 16:41 Zondag 23 Jun
01:00
11°
1020.1 hPa 24.0 mm 9.4°
3
13%
04:00
12°
1019.3 hPa 24.0 mm 10.2°
3
52%
07:00
13°
1018.5 hPa 24.0 mm 11.2°
4
92%
10:00
15°
1017.8 hPa 24.2 mm 12.1°
4
92%
13:00
17°
1017.1 hPa 26.3 mm 12.6°
5
92%
16:00
17°
1016.6 hPa 28.9 mm 12.9°
4
84%
19:00
16°
1016.2 hPa 29.9 mm 13.1°
4
77%
22:00
14°
1016.2 hPa   12.8°
3
56%
 04:45     21:25    Daglengte: 16:40 Maandag 24 Jun
01:00
13°
1016.1 hPa 59.8 mm 12.7°
2
36%
07:00
13°
1015.8 hPa 60.9 mm 12.9°
3
92%
13:00
18°
1015.9 hPa 77.9 mm 15.6°
3
90%
19:00
15°
1016.2 hPa 98.9 mm 13.9°
6
92%
 04:45     21:25    Daglengte: 16:40 Dinsdag 25 Jun
01:00
12°
1017.8 hPa 107.4 mm 11.5°
5
90%
07:00
12°
1019.0 hPa 116.6 mm 10.5°
5
92%
13:00
13°
1021.1 hPa 136.4 mm 9.8°
7
92%
19:00
13°
1022.2 hPa 151.3 mm 8.1°
6
64%
 04:46     21:25    Daglengte: 16:39 Woensdag 26 Jun
01:00
10°
1024.0 hPa 152.6 mm 7.8°
5
48%
07:00
11°
1023.8 hPa 152.7 mm 8.5°
6
92%
13:00
14°
1024.6 hPa 153.0 mm 8.7°
7
92%
19:00
18°
1021.2 hPa 1.0 mm 12.8°
1
44%
 04:46     21:25    Daglengte: 16:39 Donderdag 27 Jun
01:00
12°
1020.8 hPa 0.4 mm 10.0°
0
43%
07:00
13°
1018.9 hPa 0.7 mm 10.6°
1
52%
13:00
18°
1017.8 hPa 0.7 mm 12.9°
2
54%
19:00
18°
1016.2 hPa 1.0 mm 13.5°
2
52%
 04:47     21:25    Daglengte: 16:38 Vrijdag 28 Jun
01:00
12°
1016.1 hPa 0.7 mm 10.1°
1
44%
07:00
12°
1015.1 hPa 0.7 mm 10.8°
2
40%
13:00
18°
1015.2 hPa 0.5 mm 12.8°
3
48%
19:00
18°
1014.8 hPa 0.8 mm 13.2°
3
63%
 04:47     21:24    Daglengte: 16:37 Zaterdag 29 Jun
01:00
12°
1015.6 hPa 0.3 mm 10.2°
2
38%
07:00
12°
1015.6 hPa 0.3 mm 10.2°
2
28%
13:00
18°
1015.5 hPa 0.3 mm 12.0°
2
44%
19:00
18°
1014.8 hPa 0.6 mm 13.0°
3
50%
 04:48     21:24    Daglengte: 16:36 Zondag 30 Jun
01:00
12°
1015.4 hPa 0.3 mm 10.0°
2
32%
07:00
12°
1015.2 hPa 0.2 mm 10.1°
2
30%
13:00
18°
1015.2 hPa 0.2 mm 11.8°
3
44%
19:00
18°
1014.8 hPa 0.7 mm 12.5°
3
48%
 04:49     21:24    Daglengte: 16:35 Maandag 01 Jul
01:00
12°
1015.3 hPa 0.4 mm 9.8°
1
33%
07:00
12°
1015.4 hPa 0.1 mm 10.3°
1
29%
13:00
18°
1015.5 hPa 0.5 mm 11.9°
3
40%
19:00
18°
1014.9 hPa 0.7 mm 12.6°
3
50%
  CAPE Lifted Index Hail Supercell Tornado SRH 3km CL BTM PRES CL TOP PRES Swiss DWD icon SMHI TS
 04:43     21:23    Daglengte: 16:40 Morgen
00:00 0 J/kg 3.6 K 0 % 0 % 0 % 0 m²/s² 0 0 5.25 1
01:00 0 J/kg 4.5 K 0 % 0 % 0 % 0 m²/s² 0 0 6.48 1
02:00 0 J/kg 5.3 K 0 % 0 % 0 % 0 m²/s² 0 0 7.67 0
03:00 0 J/kg 6.0 K 0 % 0 % 0 % 0 m²/s² 0 0 8.52 0
04:00 0 J/kg 5.9 K 0 % 0 % 0 % 0 m²/s² 0 0 8.99 1
05:00 0 J/kg 5.5 K 0 % 0 % 0 % 0 m²/s² 0 0 8.59 1
06:00 0 J/kg 5.4 K 0 % 0 % 0 % 0 m²/s² 0 0 8.4 1
07:00 2 J/kg 5.8 K 0 % 0 % 0 % 0 m²/s² 0 0 9.04 3
08:00 8 J/kg 5.8 K 0 % 0 % 0 % 0 m²/s² 0 0 9.52 2
09:00 10 J/kg 5.2 K 0 % 0 % 0 % 0 m²/s² 0 0 9.1 2
10:00 18 J/kg 4.2 K 0 % 0 % 0 % 0 m²/s² 0 0 8.22 2
11:00 22 J/kg 3.4 K 0 % 0 % 0 % 0 m²/s² 0 0 7.39 3
12:00 22 J/kg 3.0 K 0 % 0 % 0 % 0 m²/s² 0 0 7.32 2
13:00 21 J/kg 2.1 K 0 % 0 % 0 % 0 m²/s² 0 0 6 3
14:00 12 J/kg 2.3 K 0 % 0 % 0 % 0 m²/s² 0 0 6.32 2
15:00 17 J/kg 2.0 K 0 % 0 % 0 % 0 m²/s² 0 0 6.56 2
16:00 15 J/kg 2.2 K 0 % 0 % 0 % 0 m²/s² 0 0 6.76 3
17:00 9 J/kg 2.5 K 0 % 0 % 0 % 0 m²/s² 0 0 6.31 3
18:00 9 J/kg 2.5 K 0 % 0 % 0 % 0 m²/s² 0 0 6.43 1
19:00 0 J/kg 2.8 K 0 % 0 % 0 % 0 m²/s² 0 0 6.61 2
20:00 0 J/kg 3.1 K 0 % 0 % 0 % 0 m²/s² 0 0 6.91 2
21:00 0 J/kg 3.7 K 0 % 0 % 0 % 0 m²/s² 0 0 7.33 2
22:00 0 J/kg 4.0 K 0 % 0 % 0 % 0 m²/s² 0 0 7.63 3
23:00 0 J/kg 3.8 K 0 % 0 % 0 % 0 m²/s² 0 0 7.61 2
 04:43     21:24    Daglengte: 16:41 Dinsdag 18 Jun
00:00 0 J/kg 3.8 K 0 % 0 % 0 % 0 m²/s² 0 0 7.7 2
01:00 0 J/kg 4.4 K 0 % 0 % 0 % 0 m²/s² 0 0 8.12 3
02:00 0 J/kg 4.7 K 0 % 0 % 0 % 0 m²/s² 0 0 8.33 3
03:00 0 J/kg 4.4 K 0 % 0 % 0 % 0 m²/s² 0 0 7.73 3
04:00 0 J/kg 4.4 K 0 % 0 % 0 % 0 m²/s² 0 0 7.58 3
05:00 0 J/kg 4.2 K 0 % 0 % 0 % 0 m²/s² 0 0 6.81 3
06:00 0 J/kg 2.9 K 0 % 0 % 0 % 0 m²/s² 0 0 5.42 3
07:00 0 J/kg 1.9 K 0 % 0 % 0 % 0 m²/s² 0 0 4.06 3
08:00 0 J/kg 1.3 K 0 % 0 % 0 % 0 m²/s² 0 0 2.98 2
09:00 0 J/kg 0.3 K 0 % 0 % 0 % 0 m²/s² 0 0 1.23 2
10:00 0 J/kg 1.5 K 0 % 0 % 0 % 0 m²/s² 0 0 1.59 2
11:00 0 J/kg 2.7 K 0 % 0 % 0 % 0 m²/s² 0 0 2.91 2
12:00 0 J/kg 1.2 K 0 % 0 % 0 % 0 m²/s² 0 0 2.07 1
13:00 41 J/kg 0.9 K 0 % 0 % 0 % 0 m²/s² 0 0 1.2 3
14:00 113 J/kg 0.3 K 0 % 0 % 0 % 0 m²/s² 0 0 0.96 3
15:00 145 J/kg 0.1 K 0 % 0 % 0 % 0 m²/s² 0 0 0.1 3
16:00 0 J/kg 0.0 K 0 % 0 % 0 % 0 m²/s² 0 0 0.03 3
17:00 85 J/kg -0.6 K 0 % 0 % 0 % 0 m²/s² 0 0 -0.21 3
18:00 346 J/kg -0.8 K 0 % 0 % 0 % 0 m²/s² 0 0 0.1 3
19:00 468 J/kg -1.7 K 0 % 0 % 0 % 0 m²/s² 0 0 -1.61 3
20:00 490 J/kg -1.9 K 0 % 0 % 0 % 0 m²/s² 0 0 -1.48 3
21:00 284 J/kg -1.2 K 0 % 0 % 0 % 0 m²/s² 0 0 0.03 3
22:00 79 J/kg -2.1 K 0 % 0 % 0 % 0 m²/s² 0 0 -1.98 3
23:00 0 J/kg 1.4 K 0 % 0 % 0 % 0 m²/s² 0 0 1.58 3
 04:43     21:24    Daglengte: 16:41 Woensdag 19 Jun
00:00 0 J/kg 1.1 K 0 % 0 % 0 % 0 m²/s² 0 0 1.52 3
01:00 0 J/kg 0.5 K 0 % 0 % 0 % 0 m²/s² 0 0 1.79 80
02:00 0 J/kg -1.2 K 0 % 0 % 0 % 0 m²/s² 0 0 -1.17 61
03:00 0 J/kg -1.9 K 0 % 0 % 0 % 0 m²/s² 0 0 0.83 61
04:00 0 J/kg -2.1 K 0 % 0 % 0 % 0 m²/s² 0 0 0.33 61
05:00 1 J/kg -2.3 K 0 % 0 % 0 % 0 m²/s² 0 0 -0.02 61
06:00 0 J/kg -2.4 K 0 % 0 % 0 % 0 m²/s² 0 0 -0.72 95
07:00 0 J/kg -1.1 K 0 % 0 % 0 % 0 m²/s² 0 0 -0.2 63
08:00 1 J/kg -1.4 K 0 % 0 % 0 % 0 m²/s² 0 0 -0.98 61
09:00 4 J/kg -1.0 K 0 % 0 % 0 % 0 m²/s² 0 0 -0.31 3
10:00 57 J/kg -1.1 K 0 % 0 % 0 % 0 m²/s² 0 0 -0.26 3
11:00 304 J/kg -1.4 K 0 % 0 % 0 % 0 m²/s² 0 0 -0.5 3
12:00 134 J/kg -0.7 K 0 % 0 % 0 % 0 m²/s² 0 0 0.29 3
13:00 6 J/kg 1.2 K 0 % 0 % 0 % 0 m²/s² 0 0 2.1 3
14:00 13 J/kg 3.0 K 0 % 0 % 0 % 0 m²/s² 0 0 4.23 3
15:00 54 J/kg 2.8 K 0 % 0 % 0 % 0 m²/s² 0 0 4.03 3
16:00 112 J/kg 2.0 K 0 % 0 % 0 % 0 m²/s² 0 0 3.14 2
17:00 107 J/kg 2.2 K 0 % 0 % 0 % 0 m²/s² 0 0 3.37 3
18:00 55 J/kg 2.7 K 0 % 0 % 0 % 0 m²/s² 0 0 4.2 3
19:00 20 J/kg 3.5 K 0 % 0 % 0 % 0 m²/s² 0 0 5.6 3
20:00 21 J/kg 3.6 K 0 % 0 % 0 % 0 m²/s² 0 0 6.99 3
21:00 59 J/kg 2.8 K 0 % 0 % 0 % 0 m²/s² 0 0 6.97 3
22:00 88 J/kg 2.9 K 0 % 0 % 0 % 0 m²/s² 0 0 5.33 3
23:00 109 J/kg 2.0 K 0 % 0 % 0 % 0 m²/s² 0 0 9.05 3
Temp Baro Wind Neerslag
  EWN Forecast EWN WRFDA DWD ICON FMI HIRLAM MET Norway GFS
 04:43     21:23    Daglengte: 16:40 Morgen
01:00 12.1° 1017.5 hPa 5.3 m/s 0.0 mm 11.0° 1017.1 hPa 5.3 m/s 0.1 mm 12.0° 1018.0 hPa 4.3 m/s -2.0 mm 13.2° 1016.6 hPa 5.2 m/s 0.0 mm 11.7° 1017.5 hPa 5.3 m/s 0.0 mm 10.7° 1018.0 hPa 5.3 m/s
04:00 11.3° 1017.1 hPa 5.1 m/s 0.0 mm 10.1° 1016.5 hPa 4.8 m/s 0.2 mm 11.2° 1017.6 hPa 4.1 m/s 0.0 mm 12.1° 1016.3 hPa 5.3 m/s 0.0 mm 11.3° 1017.2 hPa 5.1 m/s 0.0 mm 10.0° 1017.4 hPa 5.0 m/s
07:00 12.9° 1017.5 hPa 5.9 m/s 0.0 mm 12.2° 1016.7 hPa 5.8 m/s 0.2 mm 12.8° 1018.0 hPa 5.8 m/s 0.0 mm 13.2° 1016.9 hPa 5.7 m/s 0.0 mm 13.1° 1017.5 hPa 6.4 m/s 0.0 mm 12.1° 1017.7 hPa 6.1 m/s
10:00 15.9° 1017.3 hPa 6.0 m/s 0.0 mm 15.7° 1016.8 hPa 5.7 m/s 0.2 mm 16.1° 1018.3 hPa 5.6 m/s 0.0 mm 17.2° 1016.5 hPa 6.4 m/s 0.0 mm 15.8° 1017.2 hPa 6.3 m/s 0.0 mm 14.0° 1018.1 hPa 6.3 m/s
13:00 18.0° 1016.7 hPa 5.9 m/s 0.0 mm 18.6° 1015.8 hPa 5.9 m/s 0.2 mm 16.6° 1017.4 hPa 5.0 m/s 0.0 mm 19.5° 1016.0 hPa 6.0 m/s 0.0 mm 17.6° 1016.7 hPa 6.2 m/s 0.0 mm 16.0° 1017.6 hPa 6.5 m/s
16:00 18.6° 1016.1 hPa 5.4 m/s 0.0 mm 19.6° 1015.0 hPa 6.3 m/s 0.2 mm 17.2° 1016.9 hPa 5.2 m/s 0.0 mm 19.3° 1015.5 hPa 5.2 m/s 0.0 mm 18.0° 1016.1 hPa 5.7 m/s 0.0 mm 15.7° 1016.9 hPa 5.7 m/s
19:00 17.6° 1015.6 hPa 4.5 m/s 0.0 mm 17.7° 1014.8 hPa 5.7 m/s 0.2 mm 17.2° 1016.2 hPa 4.1 m/s 0.0 mm 18.6° 1015.0 hPa 4.2 m/s 0.0 mm 17.3° 1015.6 hPa 4.4 m/s 0.0 mm 15.3° 1016.4 hPa 5.2 m/s
22:00 14.2° 1016.1 hPa 3.6 m/s 0.0 mm 14.0° 1015.5 hPa 3.9 m/s 0.2 mm 13.9° 1016.6 hPa 2.4 m/s 0.0 mm 17.2° 1015.7 hPa 4.4 m/s 0.0 mm 13.3° 1016.1 hPa 3.4 m/s 0.0 mm 11.6° 1017.2 hPa 4.0 m/s
 04:43     21:24    Daglengte: 16:41 Dinsdag 18 Jun
01:00 12.3° 1016.2 hPa 3.1 m/s 0.0 mm 12.5° 1015.5 hPa 3.8 m/s 0.2 mm 12.1° 1016.3 hPa 2.1 m/s 0.0 mm 15.8° 1015.7 hPa 4.0 m/s 0.0 mm 10.9° 1016.4 hPa 2.6 m/s 0.0 mm 9.9° 1017.2 hPa 3.4 m/s
04:00 11.2° 1015.6 hPa 2.3 m/s 0.0 mm 10.9° 1014.2 hPa 2.0 m/s 0.2 mm 11.2° 1016.0 hPa 1.8 m/s 0.0 mm 14.5° 1015.6 hPa 2.3 m/s 0.0 mm 9.8° 1015.8 hPa 2.3 m/s 0.0 mm 9.2° 1016.2 hPa 3.0 m/s
07:00 12.2° 1015.4 hPa 1.5 m/s 0.0 mm 13.3° 1014.6 hPa 0.6 m/s 0.2 mm 12.4° 1015.5 hPa 1.6 m/s 0.0 mm 14.6° 1015.7 hPa 1.2 m/s 0.0 mm 11.5° 1015.5 hPa 2.2 m/s 0.0 mm 11.5° 1016.1 hPa 2.0 m/s
10:00 16.1° 1015.2 hPa 2.5 m/s 0.0 mm 16.5° 1014.7 hPa 3.9 m/s 0.3 mm 16.6° 1015.2 hPa 2.5 m/s 0.0 mm 18.4° 1015.3 hPa 1.9 m/s 0.0 mm 15.5° 1015.1 hPa 2.8 m/s 0.0 mm 15.9° 1015.6 hPa 2.5 m/s
13:00 18.5° 1014.2 hPa 1.8 m/s 0.0 mm 18.7° 1012.5 hPa 1.2 m/s 6.9 mm 19.7° 1013.8 hPa 2.3 m/s 0.0 mm 21.1° 1014.4 hPa 2.6 m/s 0.0 mm 17.2° 1014.3 hPa 1.7 m/s 0.0 mm 18.9° 1014.1 hPa 2.5 m/s
16:00 18.8° 1012.9 hPa 2.5 m/s 0.0 mm 16.2° 1011.8 hPa 3.3 m/s 17.2 mm 20.8° 1012.3 hPa 2.6 m/s 0.0 mm 22.2° 1013.2 hPa 3.1 m/s 0.0 mm 16.5° 1013.1 hPa 0.7 m/s 1.3 mm 19.2° 1012.5 hPa 2.0 m/s
19:00 18.5° 1011.6 hPa 1.7 m/s 0.0 mm 18.4° 1009.7 hPa 3.1 m/s 36.5 mm 20.5° 1011.3 hPa 0.9 m/s 0.0 mm 22.2° 1012.3 hPa 2.9 m/s 0.0 mm 15.8° 1011.8 hPa 1.4 m/s 2.1 mm 16.8° 1011.3 hPa 1.7 m/s
22:00 15.8° 1011.1 hPa 2.2 m/s 2.6 mm 16.7° 1008.8 hPa 3.0 m/s 37.0 mm 17.4° 1010.3 hPa 3.1 m/s 0.0 mm 14.6° 1011.3 hPa 1.9 m/s 0.6 mm 14.2° 1010.9 hPa 3.2 m/s
 04:43     21:24    Daglengte: 16:41 Woensdag 19 Jun
01:00 14.2° 1009.5 hPa 2.3 m/s 7.2 mm 15.3° 1006.4 hPa 5.7 m/s 84.4 mm 14.1° 1009.1 hPa 4.0 m/s 1.6 mm 13.6° 1009.7 hPa 1.4 m/s 0.0 mm 13.1° 1009.0 hPa 1.5 m/s
04:00 13.2° 1007.3 hPa 2.6 m/s 20.8 mm 12.9° 1004.2 hPa 2.0 m/s 97.8 mm 13.8° 1006.4 hPa 3.6 m/s 2.0 mm 13.0° 1007.6 hPa 2.5 m/s 0.3 mm 13.0° 1006.3 hPa 2.1 m/s
07:00 13.4° 1006.0 hPa 2.9 m/s 22.9 mm 15.2° 1003.1 hPa 3.5 m/s 98.0 mm 13.9° 1004.5 hPa 2.5 m/s 10.6 mm 12.9° 1007.2 hPa 2.1 m/s 0.5 mm 13.8° 1004.7 hPa 3.9 m/s
10:00 15.0° 1004.9 hPa 2.9 m/s 30.4 mm 16.2° 1001.6 hPa 3.0 m/s 98.3 mm 16.4° 1003.5 hPa 4.6 m/s 1.3 mm 13.7° 1006.8 hPa 2.4 m/s 2.6 mm 14.9° 1004.5 hPa 3.2 m/s
13:00 15.7° 1005.8 hPa 4.3 m/s 35.2 mm 14.9° 1003.1 hPa 9.0 m/s 99.3 mm 17.1° 1004.2 hPa 5.7 m/s 0.0 mm 15.5° 1007.7 hPa 2.3 m/s 3.3 mm 14.7° 1004.7 hPa 3.6 m/s
16:00 17.0° 1006.7 hPa 3.1 m/s 22.5 mm 17.6° 1005.6 hPa 6.6 m/s 99.9 mm 16.9° 1005.7 hPa 5.7 m/s 0.0 mm 17.0° 1007.8 hPa 0.3 m/s 0.6 mm 14.3° 1005.8 hPa 5.2 m/s
19:00 15.8° 1007.5 hPa 3.9 m/s 35.9 mm 17.2° 1006.7 hPa 5.2 m/s 99.9 mm 16.0° 1006.9 hPa 4.5 m/s 0.0 mm 15.3° 1008.2 hPa 3.1 m/s 3.9 mm 13.0° 1007.7 hPa 4.2 m/s
22:00 14.2° 1008.9 hPa 3.4 m/s 0.0 mm 14.7° 1008.0 hPa 3.5 m/s 100.3 mm 14.2° 1008.8 hPa 2.8 m/s 0.0 mm 14.2° 1009.2 hPa 3.5 m/s 11.0° 1009.9 hPa 3.1 m/s
 04:44     21:24    Daglengte: 16:40 Donderdag 20 Jun
01:00 13.0° 1009.9 hPa 3.7 m/s 0.0 mm 12.2° 1008.2 hPa 4.1 m/s 102.2 mm 13.5° 1009.8 hPa 3.0 m/s 0.0 mm 13.0° 1010.3 hPa 3.8 m/s 10.0° 1010.3 hPa 3.3 m/s
04:00 11.3° 1011.3 hPa 3.8 m/s 16.7 mm 11.5° 1011.3 hPa 3.9 m/s 8.5° 1011.1 hPa 3.3 m/s 16.7 mm
07:00 10.7° 1011.8 hPa 3.9 m/s 16.7 mm 10.8° 1011.8 hPa 3.9 m/s 10.2° 1011.6 hPa 4.2 m/s 16.7 mm
10:00 13.8° 1012.3 hPa 4.9 m/s 16.8 mm 13.8° 1012.2 hPa 5.0 m/s 14.1° 1012.5 hPa 4.6 m/s 16.8 mm
13:00 16.7° 1012.7 hPa 6.0 m/s 17.4 mm 16.8° 1012.7 hPa 6.0 m/s 15.7° 1012.6 hPa 5.4 m/s 17.4 mm
16:00 16.1° 1013.1 hPa 5.4 m/s 17.9 mm 16.1° 1013.1 hPa 5.2 m/s 16.2° 1012.6 hPa 6.7 m/s 17.9 mm
19:00 15.2° 1013.4 hPa 4.5 m/s 18.3 mm 15.3° 1013.5 hPa 4.5 m/s 14.3° 1012.7 hPa 4.6 m/s 18.3 mm
22:00 12.7° 1014.7 hPa 3.8 m/s 18.3 mm 12.9° 1014.8 hPa 3.9 m/s 10.7° 1013.7 hPa 3.5 m/s 18.3 mm
 04:44     21:24    Daglengte: 16:40 Vrijdag 21 Jun
01:00 10.4° 1015.9 hPa 3.2 m/s 18.3 mm 10.5° 1016.1 hPa 3.2 m/s 9.0° 1014.0 hPa 3.7 m/s 18.3 mm
04:00 10.2° 1016.7 hPa 3.3 m/s 18.3 mm 10.4° 1017.0 hPa 3.2 m/s 7.9° 1014.4 hPa 3.8 m/s 18.3 mm
07:00 10.3° 1017.6 hPa 3.3 m/s 18.3 mm 10.3° 1017.8 hPa 3.2 m/s 10.1° 1015.0 hPa 4.9 m/s 18.3 mm
10:00 13.1° 1018.1 hPa 3.8 m/s 18.4 mm 13.1° 1018.2 hPa 3.6 m/s 14.0° 1016.1 hPa 5.0 m/s 18.4 mm
13:00 15.8° 1018.5 hPa 4.2 m/s 19.2 mm 15.8° 1018.7 hPa 4.1 m/s 15.7° 1016.1 hPa 4.9 m/s 19.2 mm
16:00 15.9° 1018.7 hPa 3.5 m/s 19.7 mm 15.9° 1018.9 hPa 3.4 m/s 16.6° 1016.4 hPa 4.1 m/s 19.7 mm
19:00 15.8° 1018.9 hPa 2.7 m/s 20.0 mm 15.9° 1019.1 hPa 2.7 m/s 15.2° 1016.8 hPa 3.0 m/s 20.0 mm
22:00 14.1° 1019.8 hPa 1.8 m/s 20.1 mm 14.4° 1019.9 hPa 1.9 m/s 10.9° 1018.1 hPa 1.7 m/s 20.1 mm
 04:44     21:25    Daglengte: 16:41 Zaterdag 22 Jun
01:00 12.5° 1020.5 hPa 1.0 m/s 20.1 mm 12.8° 1020.7 hPa 1.0 m/s 9.3° 1018.6 hPa 1.1 m/s 20.1 mm
04:00 11.7° 1020.7 hPa 1.7 m/s 20.1 mm 12.1° 1021.0 hPa 1.6 m/s 8.1° 1018.4 hPa 1.7 m/s 20.1 mm
07:00 11.2° 1021.0 hPa 2.3 m/s 20.1 mm 11.3° 1021.2 hPa 2.3 m/s 10.5° 1018.8 hPa 2.1 m/s 20.1 mm
10:00 14.3° 1020.8 hPa 2.4 m/s 20.2 mm 14.2° 1021.0 hPa 2.3 m/s 15.2° 1018.5 hPa 3.2 m/s 20.2 mm
13:00 17.1° 1020.6 hPa 2.4 m/s 20.9 mm 17.1° 1020.8 hPa 2.3 m/s 17.1° 1018.1 hPa 3.8 m/s 20.9 mm
16:00 17.0° 1020.0 hPa 2.8 m/s 22.4 mm 17.0° 1020.2 hPa 2.7 m/s 17.6° 1016.8 hPa 3.8 m/s 22.4 mm
19:00 16.7° 1019.4 hPa 3.1 m/s 23.7 mm 16.8° 1019.7 hPa 3.1 m/s 15.6° 1016.3 hPa 3.3 m/s 23.7 mm
22:00 13.7° 1019.8 hPa 3.3 m/s 24.0 mm 13.9° 1020.0 hPa 3.2 m/s 12.0° 1017.4 hPa 3.9 m/s 24.0 mm
 04:44     21:25    Daglengte: 16:41 Zondag 23 Jun
01:00 10.9° 1020.1 hPa 3.2 m/s 24.0 mm 11.0° 1020.4 hPa 3.3 m/s 9.9° 1017.2 hPa 2.5 m/s 24.0 mm
04:00 11.7° 1019.3 hPa 3.4 m/s 24.0 mm 11.9° 1019.5 hPa 3.5 m/s 9.3° 1016.5 hPa 2.9 m/s 24.0 mm
07:00 12.7° 1018.5 hPa 3.6 m/s 24.0 mm 12.8° 1018.6 hPa 3.6 m/s 11.2° 1017.2 hPa 4.1 m/s 24.0 mm
10:00 15.0° 1017.8 hPa 4.3 m/s 24.2 mm 14.8° 1017.9 hPa 4.2 m/s 16.2° 1017.3 hPa 4.5 m/s 24.2 mm
13:00 17.0° 1017.1 hPa 4.8 m/s 26.3 mm 16.9° 1017.1 hPa 4.9 m/s 18.5° 1017.3 hPa 4.1 m/s 26.3 mm
16:00 16.7° 1016.6 hPa 4.5 m/s 28.9 mm 16.5° 1016.6 hPa 4.3 m/s 18.2° 1016.6 hPa 5.6 m/s 28.9 mm
19:00 16.2° 1016.2 hPa 4.0 m/s 29.9 mm 16.2° 1016.1 hPa 3.8 m/s 16.4° 1016.8 hPa 6.2 m/s 29.9 mm
22:00 14.5° 1016.2 hPa 3.1 m/s 29.9 mm 14.6° 1016.0 hPa 2.9 m/s 12.4° 1017.6 hPa 5.1 m/s 29.9 mm
 04:45     21:25    Daglengte: 16:40 Maandag 24 Jun
01:00 13.0° 1016.1 hPa 2.4 m/s 29.9 mm 13.1° 1016.0 hPa 2.0 m/s 12.0° 1017.0 hPa 6.5 m/s 29.9 mm
07:00 13.2° 1015.8 hPa 3.0 m/s 30.9 mm 13.3° 1015.8 hPa 2.5 m/s 11.9° 1015.6 hPa 8.2 m/s 30.9 mm
13:00 17.9° 1015.9 hPa 3.4 m/s 41.8 mm 18.3° 1016.0 hPa 3.0 m/s 12.9° 1014.8 hPa 8.1 m/s 41.8 mm
19:00 15.4° 1016.2 hPa 5.5 m/s 51.0 mm 15.7° 1016.5 hPa 5.1 m/s 11.9° 1013.3 hPa 9.9 m/s 51.0 mm
 04:45     21:25    Daglengte: 16:40 Dinsdag 25 Jun
01:00 12.3° 1017.8 hPa 5.2 m/s 55.1 mm 12.5° 1018.3 hPa 4.7 m/s 9.7° 1012.7 hPa 10.3 m/s 55.1 mm
07:00 11.7° 1019.0 hPa 5.2 m/s 59.7 mm 11.9° 1019.7 hPa 4.6 m/s 8.9° 1011.4 hPa 11.3 m/s 59.7 mm
13:00 13.2° 1021.1 hPa 6.9 m/s 73.4 mm 13.6° 1022.0 hPa 6.6 m/s 8.9° 1011.3 hPa 9.6 m/s 73.4 mm
19:00 13.2° 1022.2 hPa 6.4 m/s 76.2 mm 13.6° 1023.1 hPa 6.2 m/s 8.8° 1012.1 hPa 8.4 m/s 76.2 mm
 04:46     21:25    Daglengte: 16:39 Woensdag 26 Jun
01:00 10.1° 1024.0 hPa 5.3 m/s 76.3 mm 10.3° 1024.9 hPa 5.1 m/s 8.4° 1013.5 hPa 7.4 m/s 76.3 mm
07:00 10.7° 1023.8 hPa 6.4 m/s 76.4 mm 10.9° 1024.7 hPa 6.3 m/s 9.0° 1013.9 hPa 7.1 m/s 76.4 mm
13:00 13.9° 1024.6 hPa 6.8 m/s 76.5 mm 14.2° 1025.5 hPa 6.9 m/s 10.7° 1014.5 hPa 5.6 m/s 76.5 mm
19:00 17.8° 1021.2 hPa 1.1 m/s 1.0 mm
 04:46     21:25    Daglengte: 16:39 Donderdag 27 Jun
01:00 11.7° 1020.8 hPa 0.2 m/s 0.4 mm
07:00 12.5° 1018.9 hPa 1.3 m/s 0.7 mm
13:00 18.4° 1017.8 hPa 1.9 m/s 0.7 mm
19:00 18.2° 1016.2 hPa 1.8 m/s 1.0 mm
 04:47     21:25    Daglengte: 16:38 Vrijdag 28 Jun
01:00 12.1° 1016.1 hPa 1.0 m/s 0.7 mm
07:00 12.4° 1015.1 hPa 1.9 m/s 0.7 mm
13:00 18.3° 1015.2 hPa 2.8 m/s 0.5 mm
19:00 18.0° 1014.8 hPa 2.5 m/s 0.8 mm
 04:47     21:24    Daglengte: 16:37 Zaterdag 29 Jun
01:00 12.0° 1015.6 hPa 2.0 m/s 0.3 mm
07:00 12.1° 1015.6 hPa 2.0 m/s 0.3 mm
13:00 18.1° 1015.5 hPa 2.3 m/s 0.3 mm
19:00 18.0° 1014.8 hPa 2.5 m/s 0.6 mm
 04:48     21:24    Daglengte: 16:36 Zondag 30 Jun
01:00 11.9° 1015.4 hPa 2.0 m/s 0.3 mm
07:00 12.1° 1015.2 hPa 2.3 m/s 0.2 mm
13:00 18.1° 1015.2 hPa 3.4 m/s 0.2 mm
19:00 17.7° 1014.8 hPa 2.6 m/s 0.7 mm
 04:49     21:24    Daglengte: 16:35 Maandag 01 Jul
01:00 11.5° 1015.3 hPa 1.4 m/s 0.4 mm
07:00 12.3° 1015.4 hPa 1.4 m/s 0.1 mm
13:00 18.5° 1015.5 hPa 3.0 m/s 0.5 mm
19:00 18.0° 1014.9 hPa 2.6 m/s 0.7 mm
FMI Hirlam - 7.5 km EWN WRFDA - 12 km DWD ICON - 7 km GFS - 25 km Basiskaart






























































Updatetijd (Europe/Amsterdam) Resolutie Lengte Stap
FMI Hirlam 19:00, 01:00, 07:00, 13:00 7.5 km 49h 1h
EWN WRFDA 22:15, 04:15, 10:15, 16:15 12 km 73h 1h
DWD ICON 23:45, 05:45, 11:45, 17:45 7 km 75h 1h
GFS 20:30, 02:30, 08:30, 14:30 25 km 237h 3h
30+ mm
25-30 mm
20-25 mm
15-20 mm
10-15 mm
6-10 mm
4-6 mm
2-4 mm
1-2 mm
0.5-1 mm
0.2-0.5 mm
0.1-0.2 mm
30+ mm
25-30 mm
20-25 mm
15-20 mm
10-15 mm
6-10 mm
4-6 mm
2-4 mm
1-2 mm
0.5-1 mm
0.2-0.5 mm
0.1-0.2 mm
Sneeuwval
Natte sneeuw
Hagel
Vorst
30+ mm
25-30 mm
20-25 mm
15-20 mm
10-15 mm
6-10 mm
4-6 mm
2-4 mm
1-2 mm
0.5-1 mm
0.2-0.5 mm
0.1-0.2 mm
Sneeuwval
Natte sneeuw
Hagel
Vorst
Onweer
50 mm
40 mm
30 mm
26 mm
22 mm
18 mm
14 mm
10 mm
9 mm
8 mm
7 mm
6 mm
5 mm
4.5 mm
4 mm
3.5 mm
3 mm
2.5 mm
2 mm
1.5 mm
1 mm
0.8 mm
0.6 mm
0.4 mm
0.2 mm
0.05 mm
35°
30°
25°
20°
15°
10°
-5°
-10°
-15°
-20°
-25°
-30°
-35°
120> km/h
105 km/h
90 km/h
75 km/h
60 km/h
50 km/h
40 km/h
30 km/h
20 km/h
10 km/h
0 km/h
2600 J/kg
2400 J/kg
2200 J/kg
2000 J/kg
1800 J/kg
1600 J/kg
1400 J/kg
1200 J/kg
1000 J/kg
800 J/kg
600 J/kg
400 J/kg
200 J/kg
70 dBZ
65 dBZ
60 dBZ
55 dBZ
50 dBZ
45 dBZ
40 dBZ
35 dBZ
30 dBZ
25 dBZ
20 dBZ
15 dBZ
10 dBZ
5 dBZ
-1 K
-2 K
-3 K
-4 K
-5 K
-6 K
-7 K
-8 K
-9 K
950 m²/s²
900 m²/s²
850 m²/s²
800 m²/s²
750 m²/s²
700 m²/s²
650 m²/s²
600 m²/s²
550 m²/s²
500 m²/s²
450 m²/s²
400 m²/s²
350 m²/s²
300 m²/s²
250 m²/s²
200 m²/s²
150 m²/s²
100 m²/s²
46 m/s
44 m/s
42 m/s
40 m/s
38 m/s
36 m/s
34 m/s
32 m/s
30 m/s
28 m/s
26 m/s
24 m/s
22 m/s
20 m/s
16 m/s
12 m/s
8 m/s
4 m/s
30 m/s
28 m/s
26 m/s
24 m/s
22 m/s
20 m/s
18 m/s
16 m/s
14 m/s
12 m/s
10 m/s
8 m/s
6 m/s
4 m/s
2 m/s
3.0
2.8
2.6
2.4
2.2
2.0
1.8
1.6
1.4
1.2
1.0
0.8
0.6
0.4
0.2
15
14
13
12
11
10
9
8
7
6
5
4
3
2
1
90%
80%
70%
60%
50%
40%
30%
20%
10%
42
40
38
36
34
32
30
28
26
24
22
20
18
16
14
12
90+ cm
80-90 cm
70-80 cm
60-70 cm
50-60 cm
40-50 cm
30-40 cm
20-30 cm
10-20 cm
1-10 cm
Sneeuwval
Natte sneeuw
Regen
>120 mm
115 mm
110 mm
105 mm
100 mm
95 mm
90 mm
85 mm
80 mm
75 mm
70 mm
65 mm
60 mm
55 mm
50 mm
45 mm
45 mm
40 mm
35 mm
30 mm
25 mm
20 mm
15 mm
10 mm
5 mm
0.1 mm
960 hPa
880 hPa
800 hPa
720 hPa
640 hPa
560 hPa
584 gpdm
568 gpdm
552 gpdm
536 gpdm
520 gpdm
504 gpdm
488 gpdm
Extreem zwaar Noodweer Kans op onweer
15% 15% 5% 50% 15%